sat.trackr.live / text

‹ back to catalog

ARCTURUS

NORAD 56371 · 2023-060B

PAYLOAD ACTIVE UNKNOWN

§ Identity

Operator
Country
US
Launch date
2023-05-01
Launch site
AFETR
Launch vehicle
Mass (kg)
RCS (m²)

Purposes: comms

External: N2YO · Heavens-Above · Gunter

§ Orbital elements

Epoch: 2026-05-25T00:39:59.808384Z

Period
1,436.11 min
Inclination
2.7165°
Eccentricity
0.0001804
Mean motion
1.00270906 rev/d
Perigee alt
35,779.2 km
Apogee alt
35,794.4 km
Semi-major
42,165.0 km
B*
0.0000e+0
RAAN
80.2181°
Arg perigee
30.9975°
Mean anomaly
213.9006°
Rev number
1,122

§ Raw data

ARCTURUS1 56371U 23060B   26145.02777556 -.00000064  00000+0  00000+0 0  99992 56371   2.7165  80.2181 0001804  30.9975 213.9006  1.00270906 11223

JSON: /api/v1/satellites/56371 · /tle

For live sub-satellite position, see the globe view (requires WebGL).

§ Visibility from observer

Set your observer location to see the next 7 days of passes ≥ 10°. The values pass through the URL so the page stays shareable.

No JS? Fill the form by hand. The geolocation button needs JavaScript.